INMARSAT 3-F2 1 24307U 96053A 19052.29185345 -.00000269 00000-0 00000+0 0 9990 2 24307 3.8839 74.6117 0007270 261.7890 248.8874 1.00001526 82224 ARTEMIS 1 26863U 01029A 19051.45603942 -.00000042 +00000-0 +00000-0 0 9993 2 26863 013.2605 027.1838 0004091 076.1037 112.9761 00.99287626017308 ANIK F1-R 1 28868U 05036A 19052.40962865 -.00000096 00000-0 00000+0 0 9998 2 28868 0.0145 76.4878 0002867 282.5115 192.1658 1.00271170 49353 GALAXY 15 1 28884U 05041A 19052.70217986 .00000056 00000-0 00000+0 0 9997 2 28884 0.0456 273.6037 0001666 58.4566 299.0150 1.00271559 48826 INMARSAT 4-F2 1 28899U 05044A 19052.24077220 -.00000010 00000-0 00000+0 0 9991 2 28899 2.7833 23.6085 0003345 325.4219 312.3727 1.00271323 48697 MTSAT 2 1 28937U 06004A 19052.75766191 -.00000265 00000-0 00000+0 0 9991 2 28937 0.0769 287.9151 0003433 49.2282 231.9758 1.00271820 47553 INMARSAT 4-F3 1 33278U 08039A 19052.43912635 -.00000160 00000-0 00000+0 0 9990 2 33278 3.0204 7.7391 0002762 332.7524 230.6556 1.00272429 38469 QZS-1 (MICHIBIKI) 1 37158U 10045A 19052.61346090 -.00000220 00000-0 00000+0 0 9994 2 37158 41.2418 150.4590 0759770 270.7068 84.9889 1.00254521 30914 GSAT 8 1 37605U 11022A 19052.81148648 .00000062 00000-0 00000+0 0 9991 2 37605 0.0401 269.0201 0006816 19.1894 210.3824 1.00271090 28449 LUCH 5A 1 37951U 11074B 19052.40813264 -.00000078 00000-0 00000+0 0 9998 2 37951 2.2630 134.1211 0004194 197.2292 132.4027 1.00273326 26385 SES 5 1 38652U 12036A 19052.80154159 .00000011 00000-0 00000+0 0 9997 2 38652 0.0208 127.6998 0002218 209.2594 107.9613 1.00270750 24276 GSAT 10 1 38779U 12051B 19052.39424347 -.00000187 00000-0 00000+0 0 9992 2 38779 0.0567 291.7570 0000759 67.5649 16.5976 1.00271348 23491 LUCH 5B 1 38977U 12061A 19052.79726703 -.00000154 00000-0 00000+0 0 9992 2 38977 4.7693 70.6326 0006138 281.7762 69.7178 1.00271521 23372 ASTRA 5B 1 39617U 14011B 19052.16073785 .00000132 00000-0 00000+0 0 9992 2 39617 0.0304 9.0709 0003205 317.8296 273.2268 1.00273512 18062 LUCH 5V 1 39727U 14023A 19051.88620638 -.00000290 +00000-0 +00000-0 0 9997 2 39727 001.4602 301.6899 0003674 057.1945 205.3255 01.00268557535717 GSAT 15 1 41028U 15065A 19051.88869113 -.00000280 +00000-0 +00000-0 0 9993 2 41028 000.0796 271.6739 0001293 058.8506 233.3959 01.00270165012044 QZS-2 1 42738U 17028A 19050.94250934 -.00000153 +00000-0 +00000-0 0 9993 2 42738 043.7928 281.1426 0745762 270.4491 077.7429 01.00270753006323